Regional Weather Roundup
Issued by NWS Bismarck, ND

Home | Current Version | Previous Version | Text Only | Print | Product List | Glossary On
Versions: 1 2 3 4 5 6 7 8 9 10 11 12 13 14 15 16 17 18 19 20 21 22 23 24 25 26 27 28 29 30 31 32 33 34 35 36 37 38 39 40 41 42 43 44 45 46 47 48 49 50
000
ASUS43 KBIS 240010
RWRBIS

NWR BROADCAST TEXT
NATIONAL WEATHER SERVICE BISMARCK ND
700 PM CDT WED AUG 23 2017

NOTE: "FAIR" INDICATES FEW OR NO CLOUDS BELOW 12,000 FEET WITH NO
SIGNIFICANT WEATHER AND/OR OBSTRUCTIONS TO VISIBILITY.


CITY           SKY/WX    TMP DP  RH WIND       PRES   REMARKS
WILLISTON      SUNNY     89  46  22 S6        29.90F
MINOT          SUNNY     82  53  36 NE16G23   29.91S
MINOT AFB      SUNNY     81  52  36 E20       29.90S
BISMARCK       SUNNY     81  56  42 S9        29.94F
DICKINSON      SUNNY     85  48  27 CALM      29.93F
GARRISON         N/A     80  56  43 S9        29.92F
HETTINGER ARPT SUNNY     83  51  33 E9        29.97F
JAMESTOWN      SUNNY     76  56  49 SE7       29.96S
CARRINGTON     FAIR      77  55  47 SE9       29.98R
HAZEN          FAIR      81  55  41 S9        29.94F
LINTON           N/A     81  55  41 SE7       29.97S
MANDAN         FAIR      79  57  47 S5        29.96S
RUGBY          FAIR      73  54  49 E16       29.95R
STANLEY        FAIR      84  45  24 N12       29.94F
TIOGA          FAIR      86  41  20 N8G14     29.94S
WATFORD CITY   FAIR      88  43  20 N8        29.91S
$$

CITY           SKY/WX    TMP DP  RH WIND       PRES   REMARKS
GRAND FORKS    CLOUDY    66  53  63 E24G31    30.03S
GRAND FORKS AF CLOUDY    65  51  60 E21G28    30.03S
DEVILS LAKE    CLOUDY    69  53  56 E22G30    29.99R
FARGO          SUNNY     74  53  48 SE7       29.98S
CANDO          FAIR      64  54  68 E15G26    30.02R
CAVALIER       FAIR      57  55  94 E10       30.07R
GRAFTON        MOCLDY    55  55 100 E10G18    30.07S FOG
GWINNER        CLEAR     75  61  60 CALM      29.96F
LANGDON        MOCLDY    59  54  82 E20       30.05S
ROLLA          FAIR      63  52  67 E14G22    30.03S
WALHALLA       FAIR      57  57 100 E7        30.07S
$$

CITY           SKY/WX    TMP DP  RH WIND       PRES   REMARKS
ABERDEEN       SUNNY     78  61  55 SE8       29.95S
MOBRIDGE       SUNNY     81  63  54 E10       29.90F
BUFFALO          N/A     89  44  20 NE6       29.90S
RAPID CITY     SUNNY     81  52  36 NE6       29.95S
GLASGOW        SUNNY     91  39  16 S6        29.87F
SIDNEY         SUNNY     89  47  23 E3        29.90F
WOLF POINT     SUNNY     93  39  15 VRB3      29.87F
GLENDIVE       SUNNY     90  42  18 E7        29.91F
MILES CITY     SUNNY     93  35  13 NE10      29.88F
BAKER          SUNNY     89  39  17 E7        29.94F
$$

CITY           SKY/WX    TMP DP  RH WIND       PRES   REMARKS
BILLINGS       SUNNY     91  33  12 S6        29.92F
GREAT FALLS    SUNNY     92  32  12 NW3       29.91F
REGINA         SUNNY     79  48  34 E16G22    29.95S
ESTEVAN        MOSUNNY   79  50  36 E17G25    29.94R
$$




USA.gov is the U.S. government's official web portal to all federal, state and local government web resources and services.